Location: Orange Harbor Mobile Home Park
(26.6923°N, 81.7937°W)
Time: 23:10:27
(UTC+00:00)

CSL-04 DEB - Pass Details

Date: 19 September 2020
Orbit: 545 x 628 km, 98.8° (Epoch: 25 October)

Event Time Altitude Azimuth Distance (km) Brightness Sun altitude
Rises 09:40:44 0° 175° (S) 2,813 7.9 -21.6°
Reaches altitude 10° 09:42:54 10° 179° (S) 1,928 7.0 -21.1°
Maximum altitude 09:47:01 59° 258° (WSW) 704 4.4 -20.2°
Drops below altitude 10° 09:51:16 10° 339° (NNW) 1,981 7.0 -19.3°
Sets 09:53:31 0° 343° (NNW) 2,898 7.9 -18.8°
